Regional Weather Roundup
Issued by NWS

Home | Current Version | Previous Version | Graphics & Text | Print | Product List | Glossary On
Versions: 1 2 3 4 5 6 7 8 9 10 11 12 13 14 15 16 17 18 19 20 21 22 23 24 25 26 27
000
ASUS45 KBOU 281107
RWRCO

WEATHER ROUNDUP FOR COLORADO
NATIONAL WEATHER SERVICE DENVER/BOULDER CO
500 AM MDT WED JUN 28 2017

NOTE: "FAIR" INDICATES FEW OR NO CLOUDS BELOW 12000 FEET WITH NO
SIGNIFICANT WEATHER AND/OR OBSTRUCTIONS TO VISIBILITY.

COZ001>005-013-030-031-281200-
...NORTHWEST COLORADO...

CITY           SKY/WX    TMP DP  RH WIND       PRES   REMARKS
CRAIG          FAIR      43  37  79 CALM      30.02S
HAYDEN         FAIR      48  34  57 E7        30.04S
MEEKER         FAIR      47  35  63 E6        30.02S
RABBIT EARS PA FAIR      46  32  57 W10       30.28S
STEAMBOAT SPGS FAIR      44  38  77 CALM      30.06S
WALDEN         FAIR      39  32  75 E5        30.15S
$$

COZ006>008-011-281200-
...WEST CENTRAL VALLEYS...

CITY           SKY/WX    TMP DP  RH WIND       PRES   REMARKS
GRAND JUNCTION FAIR      68  29  23 SE9       29.87R
MONTROSE       FAIR      60  22  23 SE10      29.97S
EAGLE          FAIR      52  30  43 E3        30.06R
RIFLE          FAIR      62  28  27 CALM      29.95R
DELTA          FAIR      60  25  26 NE7       29.92S
NUCLA          FAIR      61  14  16 SE6       30.01R
$$

COZ017>023-064>068-281200-
...SOUTHWEST COLORADO...

CITY           SKY/WX    TMP DP  RH WIND       PRES   REMARKS
DURANGO        FAIR      41  22  46 NE5       30.07R
CORTEZ         FAIR      46  26  45 VRB6      30.01R
PAGOSA SPRINGS FAIR      44  18  36 CALM      30.15R
TELLURIDE      FAIR      52  14  22 SE6       30.23S
WOLF CREEK PAS FAIR      45  10  24 SW10      30.47S
$$

COZ009-010-012-014-032>034-037-058>063-281200-
...CENTRAL COLORADO...

CITY           SKY/WX    TMP DP  RH WIND       PRES   REMARKS
ASPEN          FAIR      51  30  44 SW10      30.11S
BUENA VISTA    FAIR      51  24  36 NW10      30.14R
COPPER MTN     MOCLDY    52  18  25 SW8       30.40S
BERTHOUD PASS  CLOUDY    41  28  60 W9        30.42R
COTTONWOOD PAS FAIR      61  12  15 CALM      30.26S
GUNNISON       FAIR      42  29  59 CALM      30.15R
KREMMLING      FAIR      50  37  62 CALM      30.12R
LEADVILLE      FAIR      37  25  61 CALM      30.26S
SALIDA         FAIR      52  21  29 SW9       30.19R
SUNLIGHT       FAIR      50  23  34 SE6       30.33S
WILKERSON PASS FAIR      48  23  37 CALM      30.39S
$$

COZ069>075-281200-
...SAN LUIS VALLEY/SANGRE DE CRISTO MOUNTAINS...

CITY           SKY/WX    TMP DP  RH WIND       PRES   REMARKS
ALAMOSA        FAIR      38  32  79 E7        30.10S
DEL NORTE      FAIR      54  17  24 SW14G20   30.13R
LA VETA PASS   FAIR      46  32  57 CALM      30.42R
SAGUACHE       FAIR      48  19  32 N9        30.13R
$$

COZ035-036-038>040-281200-
...NORTHERN COLORADO FRONT RANGE...

CITY           SKY/WX    TMP DP  RH WIND       PRES   REMARKS
DENVER INTL AP FAIR      57  39  51 S10       29.97S
DMNS CITY PARK   N/A     60  42  50 E7G14     29.98S
AURORA         PTCLDY    54  41  62 S10       29.99F
FRONT RANGE AP FAIR      54  41  62 SE8       29.99S
ERIE MUNI ARPT FAIR      62  42  47 CALM      29.96R
BOULDER MUN AP FAIR      59  43  55 NE3       29.96R
CENTENNIAL     FAIR      58  41  53 S7        30.01S
BROOMFIELD     FAIR      63  41  45 CALM      29.99S
FORT COLLINS   FAIR      61  43  51 S3        29.96R
LONGMONT       FAIR      58  46  64 N3        29.97R
$$

COZ041-046-047-076>085-087-088-281200-
...PIKES PEAK/PALMER DIVIDE AND SOUTHERN FOOTHILLS...

CITY           SKY/WX    TMP DP  RH WIND       PRES   REMARKS
COLO. SPRINGS  FAIR      61  39  44 NW13      30.04R
A. F. ACADEMY  FAIR      54  38  56 N10       30.06R
SCHRIEVER AFB  FAIR      58  39  48 N18G24    30.02R
CHEYENNE MTN   FAIR      63  33  32 NW16G23   30.02R
ELLICOTT       FAIR     N/A N/A N/A N10       30.00R
FALCON           N/A     57  37  48 NW12      30.08R
FORT CARSON    FAIR      62  37  39 N14       30.00R
LIMON          FAIR      53  43  68 NW3       29.96R
MONUMENT HILL  FAIR      46  37  71 CALM      30.10R
CANON CITY     CLEAR     64  37  36 CALM      29.97R
WALSENBURG     FAIR      55  41  58 CALM      30.03R
TRINIDAD       FAIR      61  39  44 NW9       30.00R
$$

COZ042>045-048>051-090-091-281200-
...NORTHEAST COLORADO...

CITY           SKY/WX    TMP DP  RH WIND       PRES   REMARKS
GREELEY ARPT   FAIR      55  47  74 E7        29.94S
AKRON          FAIR      57  47  69 NW9       29.91R
BURLINGTON     FAIR      55  52  89 CALM      29.85R
WRAY           FAIR      55  52  88 NW8       29.83R
YUMA           FAIR      52  48  87 W10       29.87R
STERLING       FAIR      52  48  87 SE3       29.87R
HOLYOKE        NOT AVBL
FORT MORGAN    FAIR      56  42  59 N10       29.93R
$$

COZ086-089-092>099-281200-
...SOUTHEAST COLORADO...

CITY           SKY/WX    TMP DP  RH WIND       PRES   REMARKS
PUEBLO         FAIR      64  40  41 W8        29.93R
LA JUNTA       FAIR      63  47  55 W10       29.85R
LAMAR          FAIR      64  52  64 CALM      29.75R
SPRINGFIELD      N/A     66  48  52 SW10      29.82R
$$




USA.gov is the U.S. government's official web portal to all federal, state and local government web resources and services.